Погода в Подбужье

Россия / Калужская область     53°29′57″N   34°55′26″E
темп.,
°C
ветер,
м/с
пор.,
м/с
влажн.,
%
обл.,
%
осадки,
мм/ч
давл.,
гПа
погр.,
м
4 августа, ср
ср400:00+17юз126920 0.0 101522
03:00+15з22775 0.0 101541
06:00+13зсз22865 0.0 101649
09:00+19з23615 0.0 1016471
12:00+22з344466 0.0 10172150
15:00+21з3656100 0.0 1017554
18:00+20з2461100 0.0 1017211
21:00+16ююв0072100 0.0 101711
5 августа, чт
чт500:00+15ююв227523 0.0 101711
03:00+13ююв347922 0.0 101766
06:00+14юв3674100 0.0 1017119
09:00+16ююв2770100 0.0 1017271
12:00+15в3592100 1.8 1016138
15:00+21ю585985 2.0 1014863
18:00+23ююв4760100 0.1 1012583
21:00+19ю3877100 0.3 1012180
6 августа, пт
пт600:00+16всв119286 1.2 101211
03:00+15юв229499 1.3 101128
06:00+16юв3693100 0.3 1010133
09:00+20ююв4107865 0.4 1009356
12:00+27ю694498 0.0 10081072
15:00+27ю5744100 0.0 10071064
18:00+26ю3655100 0.0 1007245
21:00+21в226691 0.0 100622
7 августа, сб
сб700:00+18ссз348141 0.0 100855
03:00+17св229045 0.0 100720
06:00+17вюв2485100 0.0 100787
09:00+20ююв3888100 0.8 1008290
12:00+27ю5851100 0.2 10081202
15:00+29ю6846100 0.2 10071690
18:00+26ю476169 0.0 1008756
21:00+20зюз118584 0.0 100913
8 августа, вс
вс800:00+19зсз3797100 1.1 1010254
03:00+17зсз4896100 1.4 1011289
06:00+14зсз4894100 0.0 1013256
09:00+18зсз4574100 0.0 1014431
12:00+22зсз235571 0.0 1014961
15:00+25зсз33490 0.0 10141376
18:00+24зсз335712 0.0 10141077
21:00+17сз34860 0.0 101663